AAL462 MUHA-KPBI

Flight info

Callsign AAL462
Flight time N/A
Altitude 39000
Route DUTAN4B UVA DCT KELNI DCT PEAKY/N0441F380 DCT FEMID DCT LUCYS VUUDU1
Aircraft A20N/M-SDE2E3FGHIRWXY/LB1

Departure

Time N/A
Airport José Martí International Airport (MUHA)

Arrival

Time 2026-05-03 20:25
Airport Palm Beach International Airport (KPBI)
Time Latitude Longitude Altitude Speed Heading
2026-05-03 20:15 26.77319 -80.69066 8574 ft 310 kts 112°
2026-05-03 20:15 26.76570 -80.66806 8286 ft 308 kts 112°
2026-05-03 20:15 26.75826 -80.64562 8024 ft 307 kts 112°
2026-05-03 20:15 26.75088 -80.62324 7764 ft 307 kts 112°
2026-05-03 20:16 26.74350 -80.60100 7470 ft 304 kts 112°
2026-05-03 20:16 26.73614 -80.57896 7081 ft 302 kts 112°
2026-05-03 20:16 26.72863 -80.55718 6758 ft 299 kts 113°
2026-05-03 20:16 26.72102 -80.53555 6366 ft 297 kts 113°
2026-05-03 20:17 26.71348 -80.51421 5995 ft 294 kts 113°
2026-05-03 20:17 26.70609 -80.49311 5692 ft 289 kts 111°
2026-05-03 20:17 26.70086 -80.47180 5527 ft 279 kts 101°
2026-05-03 20:17 26.69862 -80.45070 5421 ft 267 kts 95°
2026-05-03 20:18 26.69770 -80.43038 5322 ft 255 kts 93°
2026-05-03 20:18 26.69685 -80.41144 5182 ft 234 kts 94°
2026-05-03 20:18 26.69599 -80.39302 4918 ft 239 kts 94°
2026-05-03 20:18 26.69517 -80.37499 4642 ft 223 kts 93°
2026-05-03 20:19 26.69441 -80.35850 4358 ft 203 kts 93°
2026-05-03 20:19 26.69372 -80.34344 4103 ft 183 kts 93°
2026-05-03 20:19 26.69312 -80.33007 3870 ft 163 kts 92°
2026-05-03 20:19 26.69258 -80.31822 3668 ft 147 kts 92°
2026-05-03 20:20 26.69210 -80.30748 3497 ft 149 kts 92°
2026-05-03 20:20 26.69152 -80.29493 3288 ft 147 kts 92°
2026-05-03 20:20 26.69103 -80.28409 3116 ft 147 kts 91°
2026-05-03 20:20 26.69052 -80.27278 2920 ft 144 kts 91°
2026-05-03 20:21 26.69002 -80.26186 2735 ft 141 kts 90°
2026-05-03 20:21 26.68954 -80.25087 2558 ft 142 kts 90°
2026-05-03 20:21 26.68904 -80.23989 2380 ft 141 kts 89°
2026-05-03 20:21 26.68856 -80.22901 2195 ft 141 kts 90°
2026-05-03 20:22 26.68807 -80.21810 1998 ft 142 kts 91°
2026-05-03 20:22 26.68758 -80.20731 1822 ft 137 kts 89°
2026-05-03 20:22 26.68712 -80.19666 1653 ft 140 kts 89°
2026-05-03 20:22 26.68663 -80.18584 1452 ft 138 kts 90°
2026-05-03 20:23 26.68615 -80.17519 1278 ft 138 kts 88°
2026-05-03 20:23 26.68576 -80.16428 1126 ft 140 kts 88°
2026-05-03 20:23 26.68536 -80.15352 870 ft 136 kts 89°
2026-05-03 20:23 26.68455 -80.14299 735 ft 136 kts 91°
2026-05-03 20:24 26.68397 -80.13237 559 ft 141 kts 88°
2026-05-03 20:24 26.68362 -80.12154 321 ft 135 kts 89°
2026-05-03 20:24 26.68324 -80.11123 142 ft 133 kts 88°
2026-05-03 20:24 26.68286 -80.10104 39 ft 126 kts 88°
2026-05-03 20:25 26.68255 -80.09290 22 ft 85 kts 93°
2026-05-03 20:25 26.68231 -80.08811 23 ft 53 kts 93°
2026-05-03 20:25 26.68326 -80.08628 27 ft 13 kts 12°
2026-05-03 20:25 26.68385 -80.08625 29 ft 8 kts
2026-05-03 20:26 26.68390 -80.08625 31 ft 0 kts
2026-05-03 20:27 26.68391 -80.08625 31 ft 2 kts
2026-05-03 20:27 26.68431 -80.08665 26 ft 16 kts 282°
2026-05-03 20:27 26.68441 -80.08840 23 ft 28 kts 273°
2026-05-03 20:27 26.68450 -80.09035 21 ft 21 kts 272°
2026-05-03 20:28 26.68498 -80.09095 21 ft 10 kts
2026-05-03 20:28 26.68586 -80.09090 24 ft 10 kts
2026-05-03 20:28 26.68596 -80.09037 26 ft 9 kts 92°
2026-05-03 20:28 26.68595 -80.09010 28 ft 2 kts 91°
2026-05-03 20:29 26.68595 -80.09000 29 ft 0 kts 91°